| time (UTC) | temp F | wind direction | speed MPH | gust MPH | rain 1hr in | rain 24hr in | rain mn in | humidity % | barometer mb |
| 20260506090516 | 46 | 0.0 | 0.0 | 0.00 | 0.01 | 0.00 | 98 | 1019.4 | |
| 20260506085516 | 46 | 0.0 | 0.0 | 0.00 | 0.01 | 0.00 | 98 | 1019.4 | |
| 20260506084516 | 45 | 0.0 | 0.0 | 0.00 | 0.01 | 0.00 | 97 | 1019.1 | |
| 20260506083516 | 45 | 0.0 | 0.0 | 0.00 | 0.01 | 0.00 | 97 | 1019.1 | |
| 20260506082516 | 45 | 0.0 | 0.0 | 0.00 | 0.01 | 0.00 | 97 | 1019.2 | |
| 20260506081516 | 45 | 0.0 | 0.0 | 0.00 | 0.01 | 0.00 | 97 | 1019.2 | |
| 20260506080516 | 45 | 0.0 | 0.0 | 0.00 | 0.01 | 0.00 | 97 | 1019.1 | |
| 20260506072516 | 45 | 0.0 | 0.0 | 0.00 | 0.01 | 0.00 | 97 | 1018.5 | |
| 20260506071515 | 45 | 0.0 | 0.0 | 0.00 | 0.01 | 0.00 | 97 | 1018.3 | |
| 20260506070515 | 45 | 0.0 | 0.0 | 0.00 | 0.01 | 0.00 | 97 | 1018.2 | |
| 20260506062517 | 45 | 0.0 | 0.0 | 0.00 | 0.01 | 0.01 | 97 | 1017.7 | |
| 20260506061517 | 45 | 0.0 | 0.0 | 0.00 | 0.01 | 0.01 | 97 | 1017.6 | |
| 20260506060517 | 45 | 0.0 | 0.0 | 0.00 | 0.01 | 0.01 | 97 | 1017.5 | |
| 20260506050516 | 46 | 0.0 | 0.0 | 0.00 | 0.01 | 0.01 | 97 | 1017.3 | |
| 20260506044517 | 46 | 0.0 | 0.0 | 0.00 | 0.01 | 0.01 | 97 | 1017.0 | |
| 20260506043517 | 46 | 0.0 | 0.0 | 0.00 | 0.02 | 0.01 | 97 | 1016.7 | |
| 20260506042516 | 46 | 0.0 | 0.0 | 0.00 | 0.02 | 0.01 | 96 | 1016.6 | |
| 20260506041517 | 46 | 0.0 | 1.0 | 0.00 | 0.02 | 0.01 | 96 | 1016.6 | |
| 20260506040517 | 46 | 0.0 | 0.0 | 0.00 | 0.02 | 0.01 | 96 | 1016.3 | |
| 20260506035517 | 46 | 0.0 | 0.0 | 0.00 | 0.02 | 0.01 | 96 | 1016.1 | |
| 20260506034517 | 46 | 0.0 | 0.0 | 0.00 | 0.02 | 0.01 | 96 | 1015.9 | |
| 20260506033516 | 46 | 0.0 | 0.0 | 0.00 | 0.02 | 0.01 | 96 | 1015.9 | |
| 20260506032516 | 47 | 0.0 | 0.0 | 0.00 | 0.02 | 0.01 | 96 | 1015.7 | |
| 20260506031536 | 47 | 0.0 | 0.0 | 0.00 | 0.02 | 0.01 | 96 | 1015.7 | |
| 20260506030516 | 47 | 0.0 | 1.0 | 0.00 | 0.02 | 0.01 | 96 | 1015.6 | |
| 20260506025536 | 47 | 0.0 | 0.0 | 0.00 | 0.02 | 0.01 | 96 | 1015.3 | |
| 20260506024516 | 47 | 0.0 | 3.0 | 0.00 | 0.02 | 0.01 | 95 | 1015.3 | |
| 20260506023516 | 47 | 0.0 | 3.0 | 0.00 | 0.02 | 0.01 | 95 | 1015.3 | |
| 20260506022516 | 48 | 0.0 | 3.0 | 0.00 | 0.02 | 0.01 | 95 | 1015.2 | |
| 20260506021516 | 48 | 0.0 | 2.0 | 0.00 | 0.02 | 0.01 | 95 | 1015.4 | |
| 20260506020516 | 48 | 0.0 | 3.0 | 0.00 | 0.02 | 0.01 | 94 | 1015.2 | |
| 20260506015516 | 48 | 0.0 | 3.0 | 0.00 | 0.02 | 0.01 | 94 | 1015.2 | |
| 20260506014516 | 48 | 203 | 1.0 | 2.0 | 0.00 | 0.02 | 0.01 | 94 | 1015.2 |
| 20260506013516 | 49 | 0.0 | 0.0 | 0.00 | 0.02 | 0.01 | 94 | 1015.2 | |
| 20260506012516 | 49 | 0.0 | 0.0 | 0.00 | 0.02 | 0.01 | 93 | 1015.0 | |
| 20260506011516 | 49 | 0.0 | 4.0 | 0.00 | 0.02 | 0.01 | 93 | 1015.0 | |
| 20260506010516 | 50 | 0.0 | 3.0 | 0.00 | 0.02 | 0.01 | 93 | 1015.0 | |
| 20260506005516 | 50 | 0.0 | 3.0 | 0.00 | 0.02 | 0.01 | 93 | 1015.0 | |
| 20260506004536 | 50 | 203 | 1.0 | 3.0 | 0.00 | 0.02 | 0.01 | 92 | 1015.2 |
| 20260506003536 | 50 | 0.0 | 4.0 | 0.00 | 0.02 | 0.01 | 91 | 1015.2 | |
| 20260506002516 | 51 | 0.0 | 0.0 | 0.00 | 0.02 | 0.01 | 91 | 1015.2 | |
| 20260506001515 | 51 | 0.0 | 5.0 | 0.00 | 0.02 | 0.01 | 90 | 1015.2 | |
| 20260506000516 | 51 | 180 | 1.0 | 5.0 | 0.00 | 0.02 | 0.01 | 90 | 1015.2 |
| 20260505235515 | 52 | 180 | 2.0 | 5.0 | 0.00 | 0.02 | 0.01 | 89 | 1015.4 |
| 20260505234516 | 52 | 180 | 1.0 | 4.0 | 0.00 | 0.02 | 0.01 | 90 | 1015.4 |
| 20260505233515 | 53 | 270 | 2.0 | 8.0 | 0.00 | 0.02 | 0.01 | 87 | 1015.4 |
| 20260505232515 | 53 | 0.0 | 2.0 | 0.00 | 0.02 | 0.01 | 88 | 1015.5 | |
| 20260505231536 | 54 | 135 | 1.0 | 6.0 | 0.00 | 0.02 | 0.01 | 88 | 1015.5 |
| 20260505230516 | 54 | 0.0 | 3.0 | 0.00 | 0.02 | 0.01 | 87 | 1015.8 | |
| 20260505225516 | 54 | 158 | 2.0 | 5.0 | 0.00 | 0.02 | 0.01 | 87 | 1015.8 |
| 20260505224515 | 54 | 135 | 1.0 | 5.0 | 0.00 | 0.02 | 0.01 | 87 | 1015.8 |
| 20260505223517 | 55 | 203 | 2.0 | 5.0 | 0.00 | 0.02 | 0.01 | 86 | 1015.9 |
| 20260505222538 | 55 | 68 | 1.0 | 6.0 | 0.00 | 0.02 | 0.01 | 85 | 1016.0 |
| 20260505221517 | 56 | 90 | 2.0 | 5.0 | 0.00 | 0.02 | 0.01 | 85 | 1016.2 |
| 20260505220518 | 57 | 90 | 1.0 | 5.0 | 0.00 | 0.02 | 0.01 | 83 | 1016.2 |
| 20260505215517 | 57 | 225 | 2.0 | 7.0 | 0.00 | 0.02 | 0.01 | 84 | 1016.3 |
| 20260505214517 | 58 | 135 | 1.0 | 5.0 | 0.00 | 0.02 | 0.01 | 83 | 1016.5 |
| 20260505213517 | 58 | 113 | 2.0 | 6.0 | 0.00 | 0.02 | 0.01 | 82 | 1016.4 |
| 20260505212517 | 59 | 158 | 2.0 | 10.0 | 0.00 | 0.02 | 0.01 | 81 | 1016.6 |
| 20260505211517 | 58 | 293 | 1.0 | 5.0 | 0.00 | 0.02 | 0.01 | 83 | 1016.6 |
| 20260505210517 | 57 | 0 | 2.0 | 5.0 | 0.00 | 0.02 | 0.01 | 83 | 1016.4 |
| 20260505205517 | 58 | 225 | 2.0 | 4.0 | 0.00 | 0.02 | 0.01 | 81 | 1016.6 |
| 20260505204517 | 58 | 293 | 1.0 | 5.0 | 0.00 | 0.02 | 0.01 | 84 | 1016.6 |
| 20260505203517 | 58 | 113 | 2.0 | 4.0 | 0.00 | 0.02 | 0.01 | 84 | 1016.6 |
| 20260505202517 | 56 | 315 | 1.0 | 4.0 | 0.00 | 0.02 | 0.01 | 87 | 1016.5 |
| 20260505201517 | 56 | 90 | 2.0 | 4.0 | 0.00 | 0.02 | 0.01 | 85 | 1016.5 |
| 20260505200537 | 56 | 0 | 2.0 | 5.0 | 0.00 | 0.02 | 0.01 | 86 | 1016.5 |
| 20260505195517 | 56 | 203 | 2.0 | 7.0 | 0.00 | 0.02 | 0.01 | 88 | 1016.6 |
| 20260505194517 | 55 | 203 | 1.0 | 5.0 | 0.00 | 0.02 | 0.01 | 90 | 1016.4 |
| 20260505193517 | 54 | 338 | 1.0 | 4.0 | 0.00 | 0.02 | 0.01 | 91 | 1016.4 |
| 20260505192516 | 54 | 158 | 1.0 | 6.0 | 0.00 | 0.02 | 0.01 | 91 | 1016.4 |
| 20260505191517 | 54 | 248 | 2.0 | 5.0 | 0.00 | 0.02 | 0.01 | 92 | 1016.4 |
| 20260505190517 | 53 | 203 | 1.0 | 3.0 | 0.00 | 0.02 | 0.01 | 95 | 1016.2 |
| 20260505185516 | 52 | 225 | 1.0 | 5.0 | 0.00 | 0.02 | 0.01 | 96 | 1016.1 |
| 20260505184537 | 51 | 203 | 2.0 | 5.0 | 0.00 | 0.02 | 0.01 | 96 | 1015.9 |
| 20260505183517 | 51 | 203 | 2.0 | 7.0 | 0.00 | 0.02 | 0.01 | 96 | 1015.8 |
| 20260505182516 | 51 | 248 | 1.0 | 4.0 | 0.00 | 0.02 | 0.01 | 96 | 1015.7 |
| 20260505181517 | 50 | 248 | 2.0 | 4.0 | 0.00 | 0.02 | 0.01 | 97 | 1015.7 |
| 20260505180516 | 49 | 225 | 3.0 | 6.0 | 0.00 | 0.02 | 0.01 | 97 | 1015.4 |
| 20260505175516 | 49 | 203 | 2.0 | 7.0 | 0.00 | 0.02 | 0.01 | 97 | 1015.4 |
| 20260505174517 | 49 | 225 | 2.0 | 4.0 | 0.00 | 0.02 | 0.01 | 97 | 1015.4 |
| 20260505173517 | 49 | 248 | 2.0 | 5.0 | 0.00 | 0.02 | 0.01 | 97 | 1015.3 |
| 20260505172516 | 49 | 248 | 2.0 | 4.0 | 0.00 | 0.03 | 0.01 | 97 | 1015.3 |
| 20260505171536 | 49 | 0.0 | 1.0 | 0.00 | 0.03 | 0.01 | 97 | 1015.5 | |
| 20260505170536 | 49 | 0.0 | 4.0 | 0.00 | 0.04 | 0.01 | 97 | 1015.4 | |
| 20260505165516 | 49 | 0.0 | 4.0 | 0.00 | 0.04 | 0.01 | 98 | 1015.4 | |
| 20260505164516 | 49 | 315 | 1.0 | 4.0 | 0.00 | 0.05 | 0.01 | 98 | 1015.4 |
| 20260505163516 | 48 | 0.0 | 0.0 | 0.00 | 0.05 | 0.01 | 98 | 1015.2 | |
| 20260505162516 | 47 | 0.0 | 0.0 | 0.00 | 0.05 | 0.01 | 98 | 1015.2 | |
| 20260505161516 | 47 | 0.0 | 0.0 | 0.00 | 0.05 | 0.01 | 98 | 1015.1 | |
| 20260505160516 | 47 | 293 | 1.0 | 4.0 | 0.00 | 0.05 | 0.01 | 98 | 1015.1 |
| 20260505152516 | 45 | 0.0 | 0.0 | 0.00 | 0.06 | 0.01 | 98 | 1014.7 | |
| 20260505151516 | 45 | 0.0 | 0.0 | 0.00 | 0.06 | 0.01 | 98 | 1014.7 | |
| 20260505150516 | 45 | 0.0 | 3.0 | 0.00 | 0.06 | 0.01 | 98 | 1014.7 | |
| 20260505140515 | 44 | 0.0 | 0.0 | 0.00 | 0.08 | 0.01 | 98 | 1014.4 | |
| 20260505124515 | 44 | 0.0 | 0.0 | 0.00 | 0.08 | 0.01 | 98 | 1014.0 | |
| 20260505123515 | 44 | 0.0 | 0.0 | 0.00 | 0.08 | 0.01 | 98 | 1014.0 | |
| 20260505122518 | 44 | 0.0 | 0.0 | 0.00 | 0.08 | 0.01 | 98 | 1014.0 | |
| 20260505121517 | 44 | 0.0 | 0.0 | 0.00 | 0.08 | 0.01 | 98 | 1014.2 | |
| 20260505120517 | 44 | 0.0 | 0.0 | 0.00 | 0.08 | 0.01 | 98 | 1014.2 | |
| 20260505115517 | 44 | 0.0 | 0.0 | 0.00 | 0.08 | 0.01 | 98 | 1014.2 | |
| 20260505114537 | 44 | 0.0 | 0.0 | 0.00 | 0.08 | 0.01 | 98 | 1014.0 | |
| 20260505113517 | 44 | 0.0 | 0.0 | 0.00 | 0.08 | 0.01 | 98 | 1014.2 | |
| 20260505112517 | 44 | 0.0 | 0.0 | 0.00 | 0.08 | 0.01 | 98 | 1014.2 | |
| 20260505111638 | 44 | 0.0 | 0.0 | 0.00 | 0.08 | 0.01 | 98 | 1014.2 | |
| 20260505110538 | 44 | 0.0 | 0.0 | 0.01 | 0.08 | 0.01 | 98 | 1014.1 | |
| 20260505101517 | 44 | 0.0 | 2.0 | 0.01 | 0.08 | 0.01 | 98 | 1014.2 | |
| 20260505100517 | 44 | 0.0 | 4.0 | 0.00 | 0.07 | 0.00 | 98 | 1014.2 | |
| 20260505095517 | 44 | 0.0 | 3.0 | 0.00 | 0.07 | 0.00 | 98 | 1014.1 | |
| 20260505094517 | 44 | 0.0 | 0.0 | 0.00 | 0.07 | 0.00 | 98 | 1014.1 | |
| 20260505093517 | 44 | 0.0 | 0.0 | 0.00 | 0.07 | 0.00 | 98 | 1014.0 | |
| 20260505092517 | 44 | 0.0 | 0.0 | 0.00 | 0.07 | 0.00 | 98 | 1014.4 | |
| 20260505091537 | 44 | 0.0 | 0.0 | 0.00 | 0.07 | 0.00 | 98 | 1014.4 |